Location: Cisewo
(53.3833°N, 14.9000°E)
Time: 12:02:13
(UTC+00:00)

Cosmos 1140 Rocket - Pass Details

Date: 18 April 2021
Orbit: 744 x 767 km, 74.1° (Epoch: 14 May)

Event Time Altitude Azimuth Distance (km) Brightness Sun altitude
Exits shadow 21:18:34 10° 226° (SW) 2,296 5.8 -22.0°
Reaches altitude 10° 21:18:40 10° 226° (SW) 2,259 5.8 -22.0°
Maximum altitude 21:23:39 51° 303° (WNW) 933 4.2 -22.3°
Drops below altitude 10° 21:28:40 10° 20° (NNE) 2,274 6.5 -22.6°
Sets 21:31:07 0° 25° (NNE) 3,204 7.3 -22.8°
